Location: Unspecified
(41.5516°N, 88.1098°W)
Time: 07:23:49
(UTC-05:00)

Cosmos 1674 - Visible Passes

Search period start: 19 April 2014 00:00
Search period end: 29 April 2014 00:00
Orbit: 517 x 546 km, 82.5° (Epoch: 19 April)

Date Brightness Start Highest point End Pass type
(mag) Time Alt. Az. Time Alt. Az. Time Alt. Az.
23 Apr 5.3 05:23:34 10° SE 05:26:51 25° E 05:30:08 10° NNE visible
24 Apr 5.4 05:13:31 10° SE 05:16:42 24° E 05:19:54 10° NE visible
25 Apr 5.4 05:03:27 10° SE 05:06:33 22° E 05:09:39 10° NE visible
26 Apr 5.5 04:53:23 10° SE 04:56:22 21° E 04:59:22 10° NE visible
27 Apr 5.5 04:43:18 10° SE 04:46:11 20° E 04:49:04 10° NE visible
28 Apr 5.6 04:33:13 10° SE 04:35:58 19° E 04:38:44 10° NE visible
